Tracking 25198 objects as of 16-Jan-2022
HD Live streaming from Space Station
objects crossing your sky now

THOR ABLESTAR DEB

Track THOR ABLESTAR DEB now!
10-day predictions


NORAD ID: 656
Int'l Code: 1961-015HH
Perigee: 872.9 km
Apogee: 1,918.3 km
Inclination: 66.3 °
Period: 113.5 minutes
Semi major axis: 7766 km
RCS: 0.0195 m2 (small)
Launch date: June 29, 1961
Source: United States (US)
Launch site: AIR FORCE EASTERN TEST RANGE (AFETR)

Note: This is SATELLITE DEBRIS
aabbcc
Your satellite tracking list
Your tracking list is empty




NASA's NSSDC Master Catalog

Two Line Element Set (TLE):
1 00656U 61015HH  22015.86433947  .00001110  00000-0  24293-2 0  9999
2 00656  66.2871 248.4948 0673011 188.4320 170.4908 12.68403112762048
Source of the keplerian elements: AFSPC